Farmington, MO

4:41 AM CST on November 12, 2019 (GMT -0600)
Farmington Regional

Weather History for KFAM - August, 2019

Change the Weather History Date:

Sunday, August 18, 2019

  Actual Average Record
Temperature  
Mean Temperature 82 °F -  
Max Temperature 93 °F 83 °F 96 °F (2006)
Min Temperature 72 °F 63 °F 50 °F (2012)
Cooling Degree Days 17    
Growing Degree Days 32 (Base 50)    
Moisture  
Dew Point 72 °F    
Average Humidity 73    
Maximum Humidity 87    
Minimum Humidity 53    
Precipitation  
Precipitation 0.00 in - - ()
Sea Level Pressure  
Sea Level Pressure 29.93 in    
Wind  
Wind Speed 6 mph (SSW)    
Max Wind Speed 15 mph    
Max Gust Speed 23 mph    
Visibility 10 miles    
Events      
Averages and records for this station are not official NWS values.
T = Trace of Precipitation, MM = Missing Value Source: NWS Daily Summary

Daily Weather History Graph

Daily Weather History Graph

Search for Another Location

Airport or City:

Astronomy

Aug. 18, 2019 Rise Set
Actual Time 6:19 AM CDT 7:50 PM CDT
Civil Twilight 5:51 AM CDT 8:18 PM CDT
Nautical Twilight 5:18 AM CDT 8:51 PM CDT
Astronomical Twilight 4:43 AM CDT 9:26 PM CDT
Moon 9:48 PM CDT (8/18) 9:02 AM CDT (8/18)
Length of Visible Light 14h 26m
Length of Day
13h 31m
Waning Gibbous, 91% of the Moon is Illuminated
Aug 18
Waning Gibbous
Aug 23
Last Quarter
Aug 30
New
Sep 5
First Quarter
Sep 13
Full

Hourly Weather History & Observations

Time (CDT) Temp. Heat Index Dew Point Humidity Pressure Visibility Wind Dir Wind Speed Gust Speed Precip Events Conditions
12:56 AM 79.0 °F - 73.0 °F 82% 29.93 in 8.0 mi SSW 5.8 mph - N/A   Clear
1:56 AM 78.1 °F - 72.0 °F 81% 29.91 in 10.0 mi South 5.8 mph - N/A   Clear
2:56 AM 75.9 °F - 72.0 °F 87% 29.91 in 10.0 mi SSE 4.6 mph - N/A   Clear
3:56 AM 75.9 °F - 71.1 °F 85% 29.90 in 10.0 mi SSW 8.1 mph - N/A   Clear
4:56 AM 75.9 °F - 71.1 °F 85% 29.92 in 10.0 mi SW 5.8 mph - N/A   Clear
5:56 AM 75.9 °F - 70.0 °F 82% 29.91 in 10.0 mi SSW 8.1 mph - N/A   Clear
6:56 AM 75.0 °F - 70.0 °F 84% 29.93 in 10.0 mi South 8.1 mph - N/A   Clear
7:56 AM 77.0 °F - 71.1 °F 82% 29.94 in 10.0 mi South 5.8 mph - N/A   Clear
8:24 AM 78.8 °F - 71.6 °F 78% 29.94 in 10.0 mi SSW 6.9 mph - N/A   Partly Cloudy
8:56 AM 81.0 °F 85.2 °F 72.0 °F 74% 29.94 in 10.0 mi South 10.4 mph - N/A   Clear
9:56 AM 84.0 °F 90.2 °F 73.0 °F 69% 29.95 in 10.0 mi SSW 6.9 mph - N/A   Partly Cloudy
10:56 AM 89.1 °F 97.0 °F 73.0 °F 59% 29.92 in 10.0 mi SSW 10.4 mph - N/A   Clear
11:56 AM 90.0 °F 97.9 °F 73.0 °F 57% 29.92 in 10.0 mi Variable 4.6 mph - N/A   Clear
12:56 PM 89.1 °F 97.0 °F 73.0 °F 59% 29.93 in 10.0 mi WNW 8.1 mph - N/A   Scattered Clouds
1:56 PM 91.0 °F 98.2 °F 72.0 °F 53% 29.92 in 10.0 mi WSW 15.0 mph 23.0 mph N/A   Partly Cloudy
2:56 PM 86.0 °F 92.2 °F 72.0 °F 63% 29.93 in 10.0 mi WSW 10.4 mph - N/A   Partly Cloudy
3:56 PM 88.0 °F 92.9 °F 70.0 °F 55% 29.91 in 10.0 mi Calm Calm - N/A   Clear
4:56 PM 87.1 °F 93.6 °F 72.0 °F 61% 29.90 in 10.0 mi Variable 3.5 mph - N/A   Partly Cloudy
5:56 PM 89.1 °F 97.0 °F 73.0 °F 59% 29.91 in 10.0 mi South 4.6 mph - N/A   Clear
6:56 PM 86.0 °F 93.8 °F 73.9 °F 67% 29.93 in 10.0 mi South 8.1 mph - N/A   Clear
7:56 PM 80.1 °F 83.6 °F 71.1 °F 74% 29.93 in 10.0 mi South 5.8 mph - N/A   Clear
8:56 PM 77.0 °F - 71.1 °F 82% 29.94 in 10.0 mi SSE 5.8 mph - N/A   Clear
9:56 PM 75.0 °F - 71.1 °F 87% 29.97 in 10.0 mi WSW 4.6 mph - N/A   Clear
10:56 PM 73.9 °F - 69.1 °F 85% 29.99 in 10.0 mi Calm Calm - N/A   Clear
11:56 PM 72.0 °F - 68.0 °F 87% 30.00 in 10.0 mi South 4.6 mph - N/A   Clear